TimeAEST,TemperatureF,Dew PointF,Humidity,Sea Level PressureIn,VisibilityMPH,Wind Direction,Wind SpeedMPH,Gust SpeedMPH,PrecipitationIn,Events,Conditions,WindDirDegrees,DateUTC
12:00 AM,53,36,40,30.23,16,South,17.3,,,,Partly Cloudy,180,2013-04-18 14:00:00
12:00 AM,53.6,35.6,51,30.21,6.2,South,17.3,-,N/A,,Mostly Cloudy,170,2013-04-18 14:00:00
12:30 AM,51.8,35.6,54,30.21,6.2,South,13.8,-,N/A,,Scattered Clouds,180,2013-04-18 14:30:00
1:00 AM,52,37,45,30.24,,South,12.7,,,,,180,2013-04-18 15:00:00
1:00 AM,51.8,37.4,58,30.21,6.2,South,12.7,-,N/A,,Scattered Clouds,180,2013-04-18 15:00:00
1:30 AM,51.8,35.6,54,30.21,6.2,South,12.7,-,N/A,,Scattered Clouds,190,2013-04-18 15:30:00
2:00 AM,51.8,35.6,54,30.21,6.2,South,11.5,-,N/A,,Mostly Cloudy,190,2013-04-18 16:00:00
2:30 AM,51.8,41.0,67,30.21,6.2,SE,19.6,-,N/A,,Mostly Cloudy,140,2013-04-18 16:30:00
3:00 AM,51,41,60,30.23,19,SE,16.1,,,Rain,Light Rain Showers,130,2013-04-18 17:00:00
3:00 AM,50.0,41.0,71,30.21,6.2,SE,16.1,-,N/A,Rain,Light Rain Showers,130,2013-04-18 17:00:00
3:30 AM,50.0,44.6,82,30.21,6.2,SSE,16.1,-,N/A,Rain,Light Rain Showers,150,2013-04-18 17:30:00
4:00 AM,50.0,42.8,76,30.21,6.2,South,11.5,-,N/A,Rain,Light Rain Showers,170,2013-04-18 18:00:00
4:30 AM,50.0,42.8,76,30.21,6.2,South,10.4,-,N/A,,Scattered Clouds,170,2013-04-18 18:30:00
5:00 AM,50.0,42.8,76,30.24,6.2,SE,6.9,-,N/A,,Mostly Cloudy,130,2013-04-18 19:00:00
5:30 AM,50.0,41.0,71,30.24,6.2,SE,8.1,-,N/A,,Mostly Cloudy,140,2013-04-18 19:30:00
6:00 AM,48,40,67,30.26,19,SSE,9.2,,,,Partly Cloudy,150,2013-04-18 20:00:00
6:00 AM,48.2,41.0,76,30.24,6.2,SSE,9.2,-,N/A,,Scattered Clouds,150,2013-04-18 20:00:00
6:30 AM,48.2,39.2,71,30.24,6.2,SE,11.5,-,N/A,,Scattered Clouds,140,2013-04-18 20:30:00
7:00 AM,48,39,61,30.27,,SE,11.5,,,,,130,2013-04-18 21:00:00
7:00 AM,48.2,39.2,71,30.27,-9999.0,SE,11.5,-,N/A,,Clear,130,2013-04-18 21:00:00
7:30 AM,48.2,39.2,71,30.27,6.2,SSE,10.4,-,N/A,,Scattered Clouds,150,2013-04-18 21:30:00
8:00 AM,51.8,37.4,58,30.27,6.2,SE,12.7,-,N/A,,Partly Cloudy,140,2013-04-18 22:00:00
8:30 AM,53.6,37.4,54,30.30,6.2,SE,15.0,-,N/A,,Scattered Clouds,140,2013-04-18 22:30:00
9:00 AM,55,35,36,30.31,25,SSE,17.3,,,,Partly Cloudy,150,2013-04-18 23:00:00
9:00 AM,55.4,35.6,47,30.30,6.2,SSE,17.3,-,N/A,,Partly Cloudy,150,2013-04-18 23:00:00
9:30 AM,55.4,37.4,51,30.30,6.2,SSE,19.6,-,N/A,,Partly Cloudy,150,2013-04-18 23:30:00
10:00 AM,56,37,37,30.31,,SSE,20.7,,,,,150,2013-04-19 00:00:00
10:00 AM,57.2,37.4,48,30.30,6.2,SSE,20.7,-,N/A,,Scattered Clouds,150,2013-04-19 00:00:00
10:30 AM,57.2,37.4,48,30.30,6.2,SSE,20.7,-,N/A,,Scattered Clouds,160,2013-04-19 00:30:00
11:00 AM,59.0,35.6,42,30.30,6.2,SSE,19.6,-,N/A,,Mostly Cloudy,150,2013-04-19 01:00:00
11:30 AM,59.0,32.0,36,30.30,6.2,SSE,18.4,-,N/A,,Mostly Cloudy,160,2013-04-19 01:30:00
12:00 PM,57,33,28,30.30,25,SSE,17.3,,,,Partly Cloudy,160,2013-04-19 02:00:00
12:00 PM,57.2,32.0,38,30.30,6.2,SSE,17.3,-,N/A,,Mostly Cloudy,160,2013-04-19 02:00:00
12:30 PM,57.2,33.8,41,30.27,6.2,South,16.1,-,N/A,,Mostly Cloudy,170,2013-04-19 02:30:00
1:00 PM,59.0,37.4,45,30.27,6.2,SSE,18.4,-,N/A,,Scattered Clouds,160,2013-04-19 03:00:00
1:30 PM,59.0,37.4,45,30.27,6.2,South,19.6,-,N/A,,Scattered Clouds,170,2013-04-19 03:30:00
2:00 PM,59.0,39.2,48,30.27,6.2,SSE,19.6,-,N/A,,Scattered Clouds,160,2013-04-19 04:00:00
2:30 PM,59.0,39.2,48,30.24,6.2,South,18.4,-,N/A,,Mostly Cloudy,190,2013-04-19 04:30:00
3:00 PM,58,37,34,30.26,25,South,21.9,,,,Partly Cloudy,170,2013-04-19 05:00:00
3:00 PM,59.0,37.4,45,30.24,6.2,South,21.9,-,N/A,,Mostly Cloudy,170,2013-04-19 05:00:00
3:30 PM,59.0,37.4,45,30.24,6.2,South,20.7,-,N/A,,Mostly Cloudy,170,2013-04-19 05:30:00
3:50 PM,59.0,37.4,45,30.24,6.2,SSE,20.7,32.2,N/A,,Mostly Cloudy,160,2013-04-19 05:50:00
4:00 PM,58,38,35,30.26,,SSE,23.0,,,,,160,2013-04-19 06:00:00
4:00 PM,59.0,37.4,45,30.24,6.2,SSE,23.0,-,N/A,,Mostly Cloudy,160,2013-04-19 06:00:00
4:30 PM,59.0,37.4,45,30.24,6.2,SSE,23.0,-,N/A,,Scattered Clouds,160,2013-04-19 06:30:00
5:00 PM,57.2,37.4,48,30.27,6.2,SSE,20.7,-,N/A,,Partly Cloudy,150,2013-04-19 07:00:00
5:30 PM,55.4,37.4,51,30.27,6.2,SSE,21.9,-,N/A,,Scattered Clouds,160,2013-04-19 07:30:00
6:00 PM,54,38,44,30.28,25,SSE,19.6,,,,Partly Cloudy,160,2013-04-19 08:00:00
6:00 PM,53.6,39.2,58,30.27,6.2,SSE,19.6,-,N/A,,Partly Cloudy,160,2013-04-19 08:00:00
6:30 PM,51.8,39.2,62,30.27,6.2,SSE,16.1,-,N/A,,Partly Cloudy,150,2013-04-19 08:30:00
7:00 PM,53,39,49,30.30,,SSE,18.4,,,,,150,2013-04-19 09:00:00
7:00 PM,53.6,39.2,58,30.30,6.2,SSE,18.4,-,N/A,,Scattered Clouds,150,2013-04-19 09:00:00
7:30 PM,51.8,39.2,62,30.30,6.2,SSE,15.0,-,N/A,,Partly Cloudy,150,2013-04-19 09:30:00
8:00 PM,51.8,39.2,62,30.30,6.2,SE,13.8,-,N/A,,Partly Cloudy,140,2013-04-19 10:00:00
8:30 PM,50.0,39.2,66,30.30,6.2,SE,12.7,-,N/A,,Partly Cloudy,140,2013-04-19 10:30:00
9:00 PM,50,40,59,30.32,19,SE,9.2,,,,Partly Cloudy,140,2013-04-19 11:00:00
9:00 PM,50.0,39.2,66,30.30,6.2,SE,9.2,-,N/A,,Partly Cloudy,130,2013-04-19 11:00:00
9:30 PM,48.2,41.0,76,30.30,-9999.0,SE,8.1,-,N/A,,Clear,140,2013-04-19 11:30:00
10:00 PM,48,40,67,30.32,,SSE,10.4,,,,,160,2013-04-19 12:00:00
10:00 PM,48.2,41.0,76,30.30,-9999.0,SSE,10.4,-,N/A,,Clear,160,2013-04-19 12:00:00
10:30 PM,48.2,41.0,76,30.30,-9999.0,SSE,10.4,-,N/A,,Clear,150,2013-04-19 12:30:00
11:00 PM,48.2,41.0,76,30.30,6.2,SE,9.2,-,N/A,,Scattered Clouds,140,2013-04-19 13:00:00
11:30 PM,46.4,41.0,81,30.27,6.2,SSW,6.9,-,N/A,,Partly Cloudy,200,2013-04-19 13:30:00